Torna al catalogo

THORAD AGENA D DEB

AttivoPO
NORAD 42514·DEBRIS·🇺🇸 United States

Lanciato Apr 8, 1970 da Vandenberg Space Force Base

Loading…

Prossimi Passaggi (prossime 24 ore)

TLE

In scadenzaSource: Space-Track

Epoca: Sep 11, 2026, 03:32 UTC

1 42514U 70025RU  26254.14772920  .00000142  00000-0  38507-3 0  9994
2 42514  99.3995   8.3405 0185137 105.9842 256.1759 13.23414726617974

Traccia THORAD AGENA D DEB in tempo reale con AllMySat

Download on the App Store